• en France
  • Liste des pays
  • À 7 jours
  • Température de l'eau
  • Carte satellitaire
  • Carte météo
  • Widgets météo
  • user-avatar
    Se connecter

    Météo par heure à Ashilta

    Ce jour, 16 Octobre, Mardi

    Heure Température Précipitation Vent Pression Humidité
    00:00 +13°C° 0 mm 1 m/s 715 mmHg 62%
    01:00 +13°C° 0 mm 1 m/s 715 mmHg 62%
    02:00 +12°C° 0 mm 1 m/s 715 mmHg 63%
    03:00 +12°C° 0 mm 1 m/s 715 mmHg 66%
    04:00 +12°C° 0 mm 1 m/s 715 mmHg 66%
    05:00 +12°C° 0 mm 1 m/s 715 mmHg 66%
    06:00 +12°C° 0 mm 1 m/s 715 mmHg 66%
    07:00 +14°C° 0 mm 1 m/s 715 mmHg 61%
    08:00 +16°C° 0 mm 1 m/s 716 mmHg 56%
    09:00 +19°C° 0 mm 1 m/s 716 mmHg 50%
    10:00 +19°C° 0 mm 2 m/s 716 mmHg 49%
    11:00 +20°C° 0 mm 2 m/s 716 mmHg 48%
    12:00 +21°C° 0 mm 3 m/s 716 mmHg 47%
    13:00 +20°C° 0 mm 3 m/s 716 mmHg 49%
    14:00 +20°C° 0 mm 3 m/s 716 mmHg 51%
    15:00 +20°C° 0 mm 2 m/s 716 mmHg 53%
    16:00 +18°C° 0 mm 2 m/s 715 mmHg 61%
    17:00 +17°C° 0 mm 2 m/s 715 mmHg 69%
    18:00 +15°C° 0 mm 1 m/s 715 mmHg 77%
    19:00 +15°C° 0 mm 1 m/s 715 mmHg 77%
    20:00 +15°C° 0 mm 1 m/s 715 mmHg 77%
    21:00 +14°C° 0 mm 1 m/s 715 mmHg 78%
    22:00 +14°C° 0 mm 2 m/s 715 mmHg 77%
    23:00 +14°C° 0 mm 2 m/s 715 mmHg 76%

    Demain, 17 Octobre, Mercredi

    Heure Température Précipitation Vent Pression Humidité
    00:00 +14°C° 0 mm 2 m/s 715 mmHg 75%
    01:00 +14°C° 0 mm 2 m/s 714 mmHg 74%
    02:00 +13°C° 0 mm 2 m/s 714 mmHg 73%
    03:00 +13°C° 0 mm 2 m/s 714 mmHg 72%
    04:00 +13°C° 0 mm 2 m/s 714 mmHg 71%
    05:00 +13°C° 0 mm 2 m/s 714 mmHg 69%
    06:00 +13°C° 0 mm 2 m/s 714 mmHg 68%
    07:00 +15°C° 0 mm 2 m/s 714 mmHg 60%
    08:00 +17°C° 0 mm 2 m/s 714 mmHg 53%
    09:00 +20°C° 0 mm 1 m/s 715 mmHg 45%
    10:00 +20°C° 0 mm 2 m/s 715 mmHg 44%
    11:00 +21°C° 0 mm 2 m/s 715 mmHg 43%
    12:00 +22°C° 0 mm 3 m/s 714 mmHg 41%
    13:00 +22°C° 0 mm 3 m/s 714 mmHg 45%
    14:00 +22°C° 0 mm 3 m/s 714 mmHg 48%
    15:00 +21°C° 0 mm 3 m/s 713 mmHg 51%
    16:00 +20°C° 0 mm 2 m/s 713 mmHg 62%
    17:00 +18°C° 0 mm 2 m/s 713 mmHg 72%
    18:00 +16°C° 0 mm 1 m/s 713 mmHg 82%
    19:00 +16°C° 0 mm 1 m/s 713 mmHg 82%
    20:00 +15°C° 0 mm 1 m/s 713 mmHg 81%
    21:00 +15°C° 0 mm 2 m/s 713 mmHg 80%
    22:00 +15°C° 0 mm 2 m/s 712 mmHg 77%
    23:00 +14°C° 0 mm 2 m/s 712 mmHg 75%

    Après-demain, 18 Octobre, Jeudi

    Heure Température Précipitation Vent Pression Humidité
    00:00 +14°C° 0 mm 1 m/s 712 mmHg 73%
    01:00 +14°C° 0 mm 1 m/s 712 mmHg 71%
    02:00 +14°C° 0 mm 1 m/s 712 mmHg 68%
    03:00 +13°C° 0 mm 1 m/s 712 mmHg 66%
    04:00 +13°C° 0 mm 1 m/s 712 mmHg 63%
    05:00 +13°C° 0 mm 1 m/s 711 mmHg 60%
    06:00 +13°C° 0 mm 1 m/s 711 mmHg 57%
    07:00 +15°C° 0 mm 1 m/s 712 mmHg 51%
    08:00 +18°C° 0 mm 1 m/s 712 mmHg 45%
    09:00 +20°C° 0 mm 1 m/s 713 mmHg 39%
    10:00 +21°C° 0 mm 1 m/s 713 mmHg 38%
    11:00 +21°C° 0 mm 2 m/s 713 mmHg 38%
    12:00 +23°C° 0 mm 2 m/s 713 mmHg 37%
    13:00 +23°C° 0 mm 2 m/s 712 mmHg 40%
    14:00 +21°C° 0 mm 2 m/s 712 mmHg 44%
    15:00 +21°C° 0 mm 3 m/s 712 mmHg 47%
    16:00 +19°C° 0 mm 2 m/s 712 mmHg 58%
    17:00 +17°C° 0 mm 2 m/s 712 mmHg 69%
    18:00 +15°C° 0 mm 1 m/s 712 mmHg 80%
    19:00 +15°C° 0 mm 1 m/s 712 mmHg 78%
    20:00 +15°C° 0 mm 1 m/s 712 mmHg 76%
    21:00 +15°C° 0 mm 2 m/s 712 mmHg 74%
    22:00 +15°C° 0 mm 2 m/s 712 mmHg 70%
    23:00 +14°C° 0 mm 2 m/s 712 mmHg 66%

    19 Octobre, Vendredi

    Heure Température Précipitation Vent Pression Humidité
    00:00 +14°C° 0 mm 2 m/s 712 mmHg 63%
    01:00 +14°C° 0 mm 2 m/s 712 mmHg 60%
    02:00 +14°C° 0 mm 2 m/s 712 mmHg 58%
    03:00 +13°C° 0 mm 2 m/s 711 mmHg 56%
    04:00 +13°C° 0 mm 2 m/s 711 mmHg 54%
    05:00 +13°C° 0 mm 2 m/s 711 mmHg 53%
    06:00 +13°C° 0 mm 2 m/s 711 mmHg 51%
    07:00 +15°C° 0 mm 2 m/s 712 mmHg 45%
    08:00 +18°C° 0 mm 2 m/s 712 mmHg 40%
    09:00 +20°C° 0 mm 2 m/s 712 mmHg 34%
    10:00 +21°C° 0 mm 2 m/s 712 mmHg 32%
    11:00 +23°C° 0 mm 2 m/s 712 mmHg 30%
    12:00 +25°C° 0 mm 3 m/s 712 mmHg 28%
    13:00 +24°C° 0 mm 3 m/s 712 mmHg 32%
    14:00 +24°C° 0 mm 3 m/s 711 mmHg 36%
    15:00 +24°C° 0 mm 3 m/s 711 mmHg 39%
    16:00 +21°C° 0 mm 2 m/s 711 mmHg 49%
    17:00 +18°C° 0 mm 2 m/s 711 mmHg 58%
    18:00 +16°C° 0 mm 2 m/s 711 mmHg 68%
    19:00 +16°C° 0 mm 2 m/s 710 mmHg 66%
    20:00 +16°C° 0 mm 2 m/s 710 mmHg 64%
    21:00 +16°C° 0 mm 2 m/s 710 mmHg 62%
    22:00 +16°C° 0 mm 2 m/s 710 mmHg 61%
    23:00 +15°C° 0 mm 2 m/s 710 mmHg 59%

    20 Octobre, Samedi

    Heure Température Précipitation Vent Pression Humidité
    00:00 +15°C° 0 mm 2 m/s 710 mmHg 58%
    01:00 +15°C° 0 mm 2 m/s 709 mmHg 57%
    02:00 +15°C° 0 mm 2 m/s 709 mmHg 56%
    03:00 +15°C° 0 mm 2 m/s 709 mmHg 55%
    04:00 +15°C° 0 mm 2 m/s 709 mmHg 53%
    05:00 +15°C° 0 mm 2 m/s 709 mmHg 50%
    06:00 +14°C° 0 mm 2 m/s 709 mmHg 48%
    07:00 +17°C° 0 mm 2 m/s 709 mmHg 42%
    08:00 +19°C° 0 mm 2 m/s 709 mmHg 36%
    09:00 +23°C° 0 mm 1 m/s 709 mmHg 30%
    10:00 +24°C° 0 mm 1 m/s 709 mmHg 29%
    11:00 +25°C° 0 mm 2 m/s 709 mmHg 27%
    12:00 +26°C° 0 mm 2 m/s 709 mmHg 26%
    13:00 +26°C° 0 mm 2 m/s 709 mmHg 28%
    14:00 +25°C° 0 mm 2 m/s 709 mmHg 31%
    15:00 +25°C° 0 mm 2 m/s 709 mmHg 34%
    16:00 +23°C° 0 mm 1 m/s 708 mmHg 42%
    17:00 +21°C° 0 mm 1 m/s 708 mmHg 49%
    18:00 +19°C° 0 mm 1 m/s 708 mmHg 57%
    19:00 +19°C° 0 mm 1 m/s 708 mmHg 56%
    20:00 +18°C° 0 mm 1 m/s 708 mmHg 54%
    21:00 +18°C° 0 mm 1 m/s 709 mmHg 53%
    22:00 +18°C° 0 mm 1 m/s 708 mmHg 52%
    23:00 +16°C° 0 mm 1 m/s 708 mmHg 52%

    21 Octobre, Dimanche

    Heure Température Précipitation Vent Pression Humidité
    00:00 +16°C° 0 mm 1 m/s 708 mmHg 51%
    01:00 +16°C° 0 mm 1 m/s 708 mmHg 51%
    02:00 +16°C° 0 mm 1 m/s 708 mmHg 52%
    03:00 +15°C° 0 mm 1 m/s 708 mmHg 52%
    04:00 +15°C° 0 mm 1 m/s 708 mmHg 52%
    05:00 +15°C° 0 mm 1 m/s 708 mmHg 52%
    06:00 +15°C° 0 mm 1 m/s 708 mmHg 52%
    07:00 +18°C° 0 mm 1 m/s 708 mmHg 48%
    08:00 +19°C° 0 mm 1 m/s 708 mmHg 45%
    09:00 +19°C° 0 mm 0 m/s 709 mmHg 41%
    10:00 +22°C° 0 mm 1 m/s 708 mmHg 40%
    11:00 +23°C° 0 mm 1 m/s 708 mmHg 39%
    12:00 +24°C° 0 mm 2 m/s 708 mmHg 37%
    13:00 +24°C° 0 mm 2 m/s 708 mmHg 40%
    14:00 +23°C° 0 mm 2 m/s 707 mmHg 43%
    15:00 +23°C° 0 mm 2 m/s 707 mmHg 45%
    16:00 +21°C° 0 mm 1 m/s 707 mmHg 53%
    17:00 +20°C° 0 mm 1 m/s 707 mmHg 60%
    18:00 +16°C° 0 mm 0 m/s 707 mmHg 67%
    19:00 +16°C° 0 mm 0 m/s 707 mmHg 67%
    20:00 +16°C° 0 mm 0 m/s 707 mmHg 66%
    21:00 +16°C° 0 mm 0 m/s 707 mmHg 66%
    22:00 +18°C° 0 mm 1 m/s 707 mmHg 66%
    23:00 +16°C° 0 mm 1 m/s 707 mmHg 67%
    Voir plus